Weather in Al Diwaniyah

Iraq     32°53′44″N   44°21′03″E
temp.,
°C
wind,
m/s
gust,
m/s
humid.,
%
clouds,
%
prec.,
mm/h
press.,
hPa
HPBL,
m
30 november, tue
tue3000:00+18nnw47405 0.0 1019107
03:00+17nw47445 0.0 101898
06:00+16nw51051100 0.0 1018166
09:00+19nw5846100 0.0 1019317
12:00+24nw5530100 0.0 1018709
15:00+26nnw3325100 0.0 1015823
18:00+20e0036100 0.0 101511
21:00+20ssw2237100 0.0 101512
1 december, wed
wed100:00+19s3339100 0.0 101423
03:00+18sse4639100 0.0 101478
06:00+17sse5940100 0.0 1013138
09:00+21s71132100 0.0 1013358
12:00+25s7822100 0.0 1011885
15:00+26s6720100 0.0 10101223
18:00+22sw2225100 0.0 101019
21:00+20nnw2228100 0.0 101111
2 december, thu
thu200:00+19wnw2236100 0.0 101111
03:00+17wnw59500 0.0 1011151
06:00+15nnw611740 0.0 1013284
09:00+18nnw79510 0.0 1015711
12:00+21nw873458 0.0 10141749
15:00+18nw7941100 0.0 10151368
18:00+16nw47400 0.0 1017156
21:00+14nw59340 0.0 1018178
3 december, fri
fri300:00+12nw48330 0.0 1019134
03:00+11nw48370 0.0 1020125
06:00+10nw47430 0.0 1021109
09:00+14nw58360 0.0 1022329
12:00+19nw56280 0.0 1021966
15:00+20nnw55275 0.0 10201239
18:00+16nw463986 0.0 102187
21:00+14nw45415 0.0 102259
4 december, sat
sat400:00+13nw454789 0.0 102261
03:00+12nw344368 0.0 102138
06:00+11nw445257 0.0 102244
09:00+15nw4541100 0.0 1022224
12:00+18nw232998 0.0 1021710
15:00+19wnw222398 0.0 1019885
18:00+15nw2231100 0.0 101915
21:00+14sse1133100 0.0 101811